Location: Asheville, NC
(35.6000°N, 82.5500°W)
Time: 04:23:22
(UTC-05:00)

Vanguard 1 - Pass Details

Date: 08 December 2017
Orbit: 649 x 3834 km, 34.3° (Epoch: 17 January)

Event Time Altitude Azimuth Distance (km) Brightness Sun altitude
Rises 06:11:08 0° 178° (S) 7,896 14.9 -15.1°
Reaches altitude 10° 06:23:59 10° 151° (SSE) 6,863 15.1 -12.7°
Maximum altitude 06:29:26 11° 136° (SE) 6,586 15.3 -11.6°
Drops below altitude 10° 06:34:34 10° 122° (ESE) 6,468 15.7 -10.6°
Sets 06:44:51 0° 94° (E) 6,773 16.0 -8.7°
